Regional Weather Roundup
Issued by NWS Charleston, SC

Current Version | Previous Version | Text Only | Print | Product List | Glossary Off
Versions: 1 2 3 4 5 6 7 8 9 10 11 12 13 14 15 16 17 18 19 20 21 22 23 24 25 26 27 28 29 30 31 32 33 34 35 36 37 38 39 40 41 42 43 44 45 46 47 48 49 50

000
ASUS42 KCHS 250712
RWRCHS

REGIONAL WEATHER ROUNDUP
NATIONAL WEATHER SERVICE CHARLESTON SC
300 AM EDT SAT MAR 25 2017

NOTE: "FAIR" INDICATES FEW OR NO CLOUDS BELOW 12,000 FEET WITH NO
SIGNIFICANT WEATHER AND/OR OBSTRUCTIONS TO VISIBILITY.

NOT ALL STATIONS ARE QUALITY CONTROLLED. USE DATA WITH CAUTION...
ESPECIALLY DEWPOINT OBSERVATIONS.

SCZ027-030-031-034>040-042>050-250800-
...SOUTHEAST SOUTH CAROLINA...

CITY           SKY/WX    TMP DP  RH WIND       PRES   REMARKS
N CHARLESTON   CLOUDY    61  55  81 CALM      30.33F
WATERFRONT PRK   N/A     61  59  93 CALM      30.34F
JOHNS ISLAND   FAIR      63  57  82 CALM      30.34F
PINOPOLIS        N/A     57  55  94 VRB2      30.25F
MONCKS CORNER  CLOUDY    54  50  87 CALM      30.34F
SUMMERVILLE    CLOUDY    55  52  88 CALM      30.35S
BEAUFORT MCAS  MOCLDY    59  57  93 CALM      30.32F
BEAUFORT ARPT  FAIR      61  55  82 CALM      30.32F
HILTON HEAD IS CLOUDY    63  57  82 VRB5      30.33F
WALTERBORO     CLOUDY    54  52  94 E3        30.34F
ALLENDALE      FAIR      55  54  94 CALM      30.31F

...SOUTHERN MIDLANDS AND PEE DEE...

CITY           SKY/WX    TMP DP  RH WIND       PRES   REMARKS
GEORGETOWN     CLOUDY    55  54  94 CALM      30.36F
KINGSTREE      FAIR      50  46  87 CALM      30.35S
ORANGEBURG     MOCLDY    56  51  84 SE3       30.33F
BARNWELL       FAIR      54  52  94 CALM      30.32F
AIKEN          FAIR      54  50  87 SE6       30.35F
MANNING        FAIR      54  50  87 CALM      30.34F
COLUMBIA       CLOUDY    59  51  75 E3        30.32F
SUMTER         PTCLDY    55  49  80 CALM      30.31F
FLORENCE       MOCLDY    54  51  90 S3        30.34F
MYRTLE BEACH   CLOUDY    57  54  88 CALM      30.37F
N MYRTLE BEACH CLOUDY    59  55  87 CALM      30.35F

$$

GAZ063-065-086>088-099>101-113>116-118-119-134>141-150-250800-
...SOUTHEAST GEORGIA...

CITY           SKY/WX    TMP DP  RH WIND       PRES   REMARKS
SAVANNAH ARPT  CLOUDY    59  54  83 E3        30.32F
HUNTER AAF     MOCLDY    58  58  99 CALM      30.29F
FORT STEWART   CLOUDY    55  52  92 CALM      30.28F
STATESBORO     PTCLDY    54  32  43 CALM      30.31F
SYLVANIA       CLOUDY   N/A N/A N/A CALM      30.32F
CLAXTON        FAIR     N/A N/A N/A CALM      30.31F

...CSRA...CENTRAL AND FAR SOUTHEAST GEORGIA...

CITY           SKY/WX    TMP DP  RH WIND       PRES   REMARKS
THOMSON        MOCLDY    60  52  76 SW6       30.34F
AUGUSTA-BUSH   CLOUDY    58  53  84 SE6       30.30F
AUGUSTA-DANIEL PTCLDY    60  51  72 SE5       30.31F
SWAINSBORO     FAIR      59  54  82 SE5       30.30F
VIDALIA        MOCLDY    59  55  88 E5        30.30F
EASTMAN        FAIR      59  48  66 SE5       30.29F
HAZLEHURST     FAIR      60  58  93 SE3       30.28F
ALMA           MOCLDY    58  56  93 E3        30.28F
WAYCROSS       MOCLDY    61  61 100 SE6       30.28F
JESUP          FAIR      54  52  94 CALM      30.30F
BAXLEY         FAIR      59  59 100 CALM      30.28F
BRUNSWICK      FOG       57  57 100 CALM      30.30F VSB 1/2
SAINT SIMONS   CLOUDY    64  58  80 E6        30.29F

$$

SCZ027-028-034-036>038-045-046-048>050-GAZ119-141-250800-
...LAKE AND SUPPLEMENTAL COASTAL OBSERVATIONS...

STATION/POSITION TIME  TEMP    WIND        PRES    WAVE   SWELL
                       AIR SEA DIR/SP/G            HT/PER HT/PER/DIR
                 (UTC) (F)     (DEG/KT/KT) (MB)    (FT/S) (FT/S/D)
WINYAH BAY       0545   57        CALM     1028.0
LAKE MURRAY      0620   60     160/  8/  9 1026.1
ACE BASIN NERRS  NOT AVBL
FORT PULASKI     0648      61  130/  4/  5 1026.8F
SAPELO ISLAND    0600   64     100/  3     1027.0

$$

ANZ835-935-AMZ111-154-330-350-352-354-370-450-454-472-250800-
...C-MAN AND BUOY OBSERVATIONS...

STATION/POSITION TIME  TEMP    WIND        PRES    WAVE   SWELL
                       AIR SEA DIR/SP/G            HT/PER HT/PER/DIR
                 (UTC) (F)     (DEG/KT/KT) (MB)    (FT/S) (FT/S/D)
BUOY 41004       0650   69 71  160/ 16/ 17 1026.9F   5/ 7   3/140/ 7
BUOY 41008       0550   65 62  130/  8/ 10 1026.6    4/ 7   3/130/ 7
FOLLY BEACH CMAN 0600   63     150/  5/  6 1028.2F
CAPERS NEARSHORE 0608   62     120/  4/  6 1027.6F
FRIPP NEARSHORE  0608   63 60  130/  6/  8 1026.9F


STATION/POSITION TIME  TEMP    WIND        PRES    WAVE   SWELL
                       AIR SEA DIR/SP/G            HT/PER HT/PER/DIR
                 (UTC) (F)     (DEG/KT/KT) (MB)    (FT/S) (FT/S/D)
5E ST. MARYS GA  0630      64                N/A     4/ 8
FRYING PAN BUOY  0650   69 73  170/ 12/ 14 1028.3F   4/ 8   3/120/ 8
BUOY 41025       0650   68 76  220/ 19/ 23 1027.7F   4/ 4   2/120/11
CAPE LOOKOUT NC  0600   65     210/ 10/ 12 1028.0F
BUOY 41002       0650   65 73  120/ 12/ 16 1028.8F   5/11   5/ 60/11
BUOY 41010       NOT AVBL
ST AUGUSTINE FL  0700   67 66  140/  8/  9 1025.9F


$$



USA.gov is the U.S. government's official web portal to all federal, state and local government web resources and services.